Weather History for North Myrtle Beach, SC

Change the Weather History Date:

Wednesday, October 30, 2013

  Actual Average Record
Temperature  
Mean Temperature 62 °F 61 °F  
Max Temperature 74 °F 71 °F 85 °F (1950)
Min Temperature 50 °F 51 °F 25 °F (1952)
Degree Days  
Heating Degree Days 3 6  
Month to date heating degree days 76 81  
Since 1 July heating degree days 76 85  
Cooling Degree Days 0 2  
Month to date cooling degree days 89 98  
Year to date cooling degree days 1817 1882  
Growing Degree Days 12 (Base 50)    
Moisture  
Dew Point 55 °F    
Average Humidity 77    
Maximum Humidity 100    
Minimum Humidity 53    
Precipitation  
Precipitation 0.00 in 0.10 in 0.36 in (2014)
Month to date precipitation 1.37 3.77  
Year to date precipitation 43.49 45.40  
Sea Level Pressure  
Sea Level Pressure 30.26 in    
Wind  
Wind Speed 2 mph (SSE)    
Max Wind Speed 10 mph    
Max Gust Speed 13 mph    
Visibility 3 miles    
Events Fog    
T = Trace of Precipitation, MM = Missing Value Source: NWS Daily Summary

Daily Weather History Graph

Daily Weather History Graph

Search for Another Location

Airport:

Trip Planner

Search our weather history database for the weather conditions in past years. The results will help you decide how hot, cold, wet, or windy it might be!

Date:

Astronomy

Oct. 30, 2013 Rise Set
Actual Time 7:32 AM EDT 6:24 PM EDT
Civil Twilight 7:06 AM EDT 6:49 PM EDT
Nautical Twilight 6:37 AM EDT 7:19 PM EDT
Astronomical Twilight 6:08 AM EDT 7:48 PM EDT
Moon 3:30 AM EDT (10/30) 3:58 PM EDT (10/30)
Length of Visible Light 11h 42m
Length of Day
10h 51m
Waning Crescent, 17% of the Moon is Illuminated
Oct 30
Waning Crescent
Nov 3
New
Nov 10
First Quarter
Nov 17
Full
Nov 25
Last Quarter

Hourly Weather History & Observations

Time (EDT) Temp. Dew Point Humidity Pressure Visibility Wind Dir Wind Speed Gust Speed Precip Events Conditions
12:08 AM 55.4 °F 55.4 °F 100% 30.30 in 1.0 mi Calm Calm - N/A   Clear
12:24 AM 55.4 °F 53.6 °F 94% 30.29 in 3.0 mi Calm Calm - N/A   Clear
12:47 AM 53.6 °F 53.6 °F 100% 30.28 in 1.8 mi Calm Calm - N/A   Clear
12:53 AM 54.0 °F 54.0 °F 100% 30.29 in 2.0 mi Calm Calm - N/A   Clear
1:17 AM 53.6 °F 53.6 °F 100% 30.28 in 1.5 mi Calm Calm - N/A   Clear
1:31 AM 53.6 °F 53.6 °F 100% 30.27 in 0.5 mi Calm Calm - N/A Fog Fog
1:39 AM 53.6 °F 53.6 °F 100% 30.28 in 2.5 mi Calm Calm - N/A   Clear
1:46 AM 53.6 °F 53.6 °F 100% 30.28 in 3.0 mi Calm Calm - N/A   Clear
1:53 AM 54.0 °F 53.1 °F 97% 30.28 in 4.0 mi Calm Calm - N/A   Clear
2:33 AM 53.6 °F 51.8 °F 94% 30.27 in 2.0 mi Calm Calm - N/A   Clear
2:53 AM 53.1 °F 52.0 °F 96% 30.26 in 1.5 mi Calm Calm - N/A   Clear
3:02 AM 51.8 °F 51.8 °F 100% 30.26 in 0.8 mi Calm Calm - N/A   Clear
3:08 AM 51.8 °F 51.8 °F 100% 30.26 in 2.5 mi Calm Calm - N/A   Clear
3:15 AM 53.6 °F 53.6 °F 100% 30.26 in 3.0 mi Calm Calm - N/A   Clear
3:53 AM 54.0 °F 53.1 °F 97% 30.26 in 4.0 mi NE 3.5 mph - N/A   Clear
4:20 AM 53.6 °F 53.6 °F 100% 30.26 in 2.0 mi Calm Calm - N/A   Clear
4:33 AM 53.6 °F 53.6 °F 100% 30.26 in 1.0 mi Calm Calm - N/A   Clear
4:41 AM 53.6 °F 53.6 °F 100% 30.26 in 0.8 mi Calm Calm - N/A   Mist
4:53 AM 52.0 °F 52.0 °F 100% 30.27 in 0.8 mi Calm Calm - N/A   Mist
5:05 AM 51.8 °F 51.8 °F 100% 30.26 in 0.2 mi Calm Calm - N/A Fog Fog
5:12 AM 51.8 °F 51.8 °F 100% 30.27 in 1.0 mi Calm Calm - N/A   Mist
5:25 AM 51.8 °F 51.8 °F 100% 30.27 in 0.5 mi Calm Calm - N/A Fog Fog
5:53 AM 52.0 °F 52.0 °F 100% 30.27 in 1.0 mi Calm Calm - N/A   Mist
6:13 AM 51.8 °F 51.8 °F 100% 30.27 in 1.0 mi Calm Calm - N/A   Clear
6:20 AM 51.8 °F 51.8 °F 100% 30.27 in 0.8 mi Calm Calm - N/A   Clear
6:25 AM 51.8 °F 51.8 °F 100% 30.27 in 2.0 mi Calm Calm - N/A   Clear
6:46 AM 51.8 °F 50.0 °F 94% 30.28 in 0.8 mi Calm Calm - N/A   Clear
6:53 AM 52.0 °F 51.1 °F 97% 30.29 in 0.8 mi Calm Calm - N/A   Clear
6:58 AM 51.8 °F 50.0 °F 94% 30.29 in 2.5 mi Calm Calm - N/A   Clear
7:05 AM 51.8 °F 50.0 °F 94% 30.29 in 6.0 mi Calm Calm - N/A   Clear
7:27 AM 51.8 °F 50.0 °F 94% 30.30 in 1.8 mi Calm Calm - N/A   Clear
7:48 AM 51.8 °F 51.8 °F 100% 30.30 in 2.0 mi Calm Calm - N/A   Clear
7:53 AM 53.1 °F 52.0 °F 96% 30.31 in 2.0 mi Calm Calm - N/A   Clear
8:40 AM 57.2 °F 55.4 °F 94% 30.31 in 3.0 mi Calm Calm - N/A   Clear
8:53 AM 57.9 °F 55.9 °F 93% 30.32 in 3.0 mi North 3.5 mph - N/A   Clear
9:53 AM 64.9 °F 60.1 °F 84% 30.32 in 9.0 mi Calm Calm - N/A   Clear
10:53 AM 71.1 °F 57.9 °F 63% 30.32 in 10.0 mi Calm Calm - N/A   Clear
11:53 AM 73.0 °F 55.9 °F 55% 30.31 in 10.0 mi Calm Calm - N/A   Clear
12:08 PM 71.6 °F 59.0 °F 64% 30.30 in 2.5 mi South 5.8 mph - N/A   Haze
12:14 PM 73.4 °F 57.2 °F 57% 30.29 in 1.0 mi South 6.9 mph - N/A   Haze
12:26 PM 71.6 °F 59.0 °F 64% 30.29 in 3.0 mi South 6.9 mph - N/A   Haze
12:37 PM 73.4 °F 59.0 °F 61% 30.28 in 10.0 mi South 6.9 mph - N/A   Scattered Clouds
12:53 PM 73.0 °F 59.0 °F 61% 30.28 in 10.0 mi SSE 8.1 mph - N/A   Partly Cloudy
1:53 PM 73.0 °F 59.0 °F 61% 30.25 in 10.0 mi SSE 6.9 mph - N/A   Clear
2:53 PM 72.0 °F 59.0 °F 64% 30.23 in 10.0 mi South 6.9 mph - N/A   Clear
3:53 PM 71.1 °F 60.1 °F 68% 30.21 in 10.0 mi South 9.2 mph - N/A   Clear
4:53 PM 71.1 °F 60.1 °F 68% 30.21 in 10.0 mi South 6.9 mph - N/A   Clear
5:53 PM 69.1 °F 61.0 °F 75% 30.20 in 10.0 mi South 4.6 mph - N/A   Clear
6:53 PM 66.9 °F 61.0 °F 81% 30.22 in 10.0 mi Calm Calm - N/A   Clear
7:53 PM 62.1 °F 59.0 °F 90% 30.24 in 8.0 mi Calm Calm - N/A   Clear
8:50 PM 60.8 °F 57.2 °F 88% 30.24 in 1.5 mi Calm Calm - N/A   Clear
8:53 PM 60.1 °F 59.0 °F 96% 30.24 in 1.2 mi Calm Calm - N/A   Clear
9:00 PM 60.8 °F 59.0 °F 94% 30.23 in 3.0 mi Calm Calm - N/A   Clear
9:09 PM 60.8 °F 59.0 °F 94% 30.22 in 1.8 mi Calm Calm - N/A   Clear
9:18 PM 59.0 °F 57.2 °F 94% 30.22 in 0.8 mi ENE 3.5 mph - N/A   Clear
9:27 PM 59.0 °F 57.2 °F 94% 30.21 in 1.0 mi Calm Calm - N/A   Clear
9:34 PM 59.0 °F 57.2 °F 94% 30.21 in 0.5 mi Calm Calm - N/A Fog Fog
9:45 PM 59.0 °F 59.0 °F 100% 30.22 in 2.0 mi Calm Calm - N/A   Clear
9:53 PM 59.0 °F 59.0 °F 100% 30.23 in 3.0 mi Calm Calm - N/A   Clear
10:17 PM 60.8 °F 60.8 °F 100% 30.22 in 1.2 mi Calm Calm - N/A   Clear
10:29 PM 59.0 °F 57.2 °F 94% 30.23 in 3.0 mi Calm Calm - N/A   Clear
10:37 PM 57.2 °F 57.2 °F 100% 30.23 in 1.8 mi Calm Calm - N/A   Clear
10:46 PM 57.2 °F 57.2 °F 100% 30.24 in 0.8 mi Calm Calm - N/A   Clear
10:51 PM 57.2 °F 57.2 °F 100% 30.24 in 2.0 mi Calm Calm - N/A   Clear
10:53 PM 57.9 °F 57.9 °F 100% 30.24 in 2.5 mi Calm Calm - N/A   Clear
11:09 PM 59.0 °F 57.2 °F 94% 30.23 in 1.8 mi Calm Calm - N/A   Clear
11:24 PM 57.2 °F 57.2 °F 100% 30.23 in 3.0 mi Calm Calm - N/A   Clear
11:30 PM 59.0 °F 57.2 °F 94% 30.23 in 1.5 mi Calm Calm - N/A   Clear
11:39 PM 57.2 °F 57.2 °F 100% 30.23 in 0.8 mi Calm Calm - N/A   Clear
11:46 PM 57.2 °F 57.2 °F 100% 30.23 in 1.5 mi Calm Calm - N/A   Clear
11:53 PM 57.0 °F 55.9 °F 96% 30.23 in 0.5 mi Calm Calm - N/A Fog Fog
11:55 PM 57.2 °F 55.4 °F 94% 30.22 in 0.2 mi Calm Calm - N/A Fog Fog